Location: Newark
(48.6676°N, 6.1917°E)
Time: 05:01:53
(UTC+00:00)

N. Korean satellite - Pass Details

Date: 16 December 2019
Orbit: 454 x 508 km, 97.2° (Epoch: 20 January)

Event Time Altitude Azimuth Distance (km) Brightness Sun altitude
Rises 05:33:30 0° 12° (NNE) 2,533 10.2 -16.8°
Reaches altitude 10° 05:35:35 10° 13° (NNE) 1,641 9.2 -16.5°
Maximum altitude 05:39:07 87° 104° (ESE) 472 6.4 -15.9°
Drops below altitude 10° 05:42:33 10° 193° (SSW) 1,602 9.2 -15.4°
Sets 05:44:34 0° 194° (SSW) 2,466 10.2 -15.1°
